EDT,Max TemperatureF,Mean TemperatureF,Min TemperatureF,Max Dew PointF,MeanDew PointF,Min DewpointF,Max Humidity, Mean Humidity, Min Humidity, Max Sea Level PressureIn, Mean Sea Level PressureIn, Min Sea Level PressureIn, Max VisibilityMiles, Mean VisibilityMiles, Min VisibilityMiles, Max Wind SpeedMPH, Mean Wind SpeedMPH, Max Gust SpeedMPH,PrecipitationIn, CloudCover, Events, WindDirDegrees
2013-3-1,30,28,26,25,21,18,86,73,60,29.88,29.84,29.78,10,9,2,13,6,21,0.00,8,Snow,310
2013-3-2,26,24,21,18,14,12,80,68,59,29.89,29.86,29.83,10,9,3,13,7,18,0.00,8,Snow,315
2013-3-3,21,20,19,16,12,7,80,71,58,29.96,29.90,29.87,10,7,2,13,7,21,0.00,8,Snow,299
2013-3-4,33,25,17,12,7,5,63,48,30,30.07,30.02,29.95,10,10,10,13,7,20,0.00,3,,303
2013-3-5,39,32,24,32,24,12,93,76,56,30.04,29.86,29.60,10,8,1,10,3,20,0.29,8,Rain-Snow,70
2013-3-6,30,26,23,28,23,19,93,82,74,30.09,29.83,29.60,10,8,0,12,4,17,0.07,8,Snow,305
2013-3-7,32,29,26,25,23,21,93,78,64,30.23,30.17,30.08,10,9,3,10,6,17,0.00,8,,306
2013-3-8,35,30,23,23,19,14,86,64,52,30.33,30.27,30.19,10,10,10,20,7,25,0.00,3,,337
2013-3-9,51,34,17,27,20,16,100,64,28,30.35,30.29,30.23,10,10,10,8,1,,0.00,0,,56
2013-3-10,55,40,26,27,25,21,86,55,31,30.26,30.21,30.15,10,10,10,12,5,16,0.00,1,,74
2013-3-11,50,46,41,43,33,25,87,59,43,30.16,30.00,29.84,10,10,7,14,5,23,0.03,4,Rain,165
2013-3-12,48,39,30,43,31,23,93,81,65,30.01,29.90,29.76,10,9,4,15,5,21,0.28,6,Rain,291
2013-3-13,32,26,21,27,20,12,93,72,48,30.12,30.01,29.96,10,8,0,18,5,29,0.01,6,Snow,285
2013-3-14,33,26,19,14,10,5,74,52,32,30.22,30.15,30.12,10,9,4,14,8,23,0.00,3,Snow,300
2013-3-15,51,37,23,27,18,9,63,47,33,30.14,29.99,29.87,10,10,10,16,5,24,0.00,2,,249
2013-3-16,64,48,33,45,36,27,93,66,32,29.90,29.78,29.63,10,10,3,20,5,32,0.18,5,Rain-Thunderstorm,276
2013-3-17,44,38,33,37,33,32,93,82,71,30.10,30.01,29.90,10,8,3,8,5,,0.17,7,Rain,355
2013-3-18,32,30,28,32,29,27,100,91,86,30.10,30.00,29.83,10,7,2,10,4,17,0.22,8,,91
2013-3-19,46,38,30,34,14,-13,100,51,9,30.01,29.89,29.79,10,9,2,31,8,51,0.00,3,,274
2013-3-20,42,34,26,23,6,-2,80,34,18,30.02,29.92,29.77,10,10,2,20,9,29,0.00,2,Snow,283
2013-3-21,28,22,15,19,8,1,79,61,42,29.93,29.82,29.77,10,9,1,15,8,25,0.00,5,Snow,317
2013-3-22,35,24,12,10,7,3,73,50,30,29.98,29.95,29.91,10,10,10,12,4,22,0.00,0,,280
2013-3-23,44,32,19,18,13,9,80,49,25,30.02,29.96,29.90,10,10,10,10,2,17,0.00,4,,308
2013-3-24,32,29,26,27,22,14,93,74,48,29.92,29.71,29.51,10,7,0,12,4,16,0.29,6,Snow,66
2013-3-25,32,29,26,27,23,19,93,80,60,29.75,29.56,29.46,10,6,2,17,5,26,0.01,8,Snow,267
2013-3-26,33,30,28,27,22,18,86,73,52,30.08,29.92,29.76,10,8,2,13,8,20,0.00,8,Snow,292
2013-3-27,32,29,26,25,21,19,93,74,60,30.19,30.15,30.09,10,8,1,13,6,20,0.01,8,Snow,292
2013-3-28,35,32,28,23,19,16,80,59,44,30.26,30.21,30.17,10,10,7,13,6,20,0.00,8,Snow,307
2013-3-29,46,35,24,23,18,14,86,52,27,30.28,30.23,30.17,10,10,10,13,3,20,0.00,4,,289
2013-3-30,51,37,23,27,21,19,93,54,28,30.24,30.15,30.05,10,10,10,12,1,,0.00,1,,229
2013-3-31,50,42,33,43,35,21,100,79,39,30.05,29.88,29.81,10,8,2,14,4,20,0.13,6,Rain,305